User: anonymous
Location: Del Oro Observatory
(38.3044°N, 104.8119°W)
Time: 23:30:24
(UTC-06:00)
Language:

Cosmos 1602 Rocket - Orbit

View from above orbital plane
View from above orbital plane
View from above satellite
View from above satellite

Ground track
Ground track

The orbit data is extracted from the following two-line orbital elements,

1 15332U 84105B   14259.73084535  .00000436  00000-0  50760-4 0  7474
2 15332 082.5351 046.7202 0022808 083.5918 021.4632 14.82780091617704
Epoch (UTC): 16 September 2014 17:32:25
Eccentricity: 0.0022808
inclination: 82.5351°
perigee height: 604 km
apogee height: 636 km
right ascension of ascending node: 46.7202°
argument of perigee: 83.5918°
revolutions per day: 14.82780091
mean anomaly at epoch: 21.4632°
orbit number at epoch: 61770

The dashed part of the orbit path shows where the satellite is in the earth's shadow,  

DLR